GLD1043 SBBV-TGPY

Flight info

Callsign GLD1043
Flight time 1h 23m
Altitude 33000
Route ANLOL DCT ILNER DCT LOLER DCT KUMIX DCT TOBLA DCT ISAKU DCT POS DCT DUKLA DCT IMORO
Aircraft B738/M-SDE2E3FGHIRWXY/LB1

Departure

Time 2026-04-25 18:29
Airport Atlas Brasil Cantanhede International Airport (SBBV)

Arrival

Time 2026-04-25 19:52
Airport Maurice Bishop International Airport (TGPY)
Time Latitude Longitude Altitude Speed Heading
2026-04-25 17:37 2.84203 -60.69248 281 ft 0 kts 154°
2026-04-25 18:15 2.84218 -60.69255 278 ft 4 kts 154°
2026-04-25 18:16 2.84242 -60.69268 278 ft 3 kts 154°
2026-04-25 18:16 2.84258 -60.69276 278 ft 4 kts 109°
2026-04-25 18:16 2.84270 -60.69265 280 ft 4 kts 61°
2026-04-25 18:17 2.84277 -60.69251 278 ft 0 kts 64°
2026-04-25 18:20 2.84281 -60.69245 278 ft 3 kts 60°
2026-04-25 18:21 2.84303 -60.69233 278 ft 4 kts
2026-04-25 18:21 2.84330 -60.69250 281 ft 5 kts 297°
2026-04-25 18:21 2.84318 -60.69288 278 ft 7 kts 245°
2026-04-25 18:21 2.84293 -60.69339 278 ft 9 kts 243°
2026-04-25 18:22 2.84259 -60.69404 278 ft 11 kts 242°
2026-04-25 18:22 2.84248 -60.69426 278 ft 11 kts 242°
2026-04-25 18:22 2.84190 -60.69538 278 ft 11 kts 244°
2026-04-25 18:22 2.84154 -60.69608 278 ft 12 kts 241°
2026-04-25 18:23 2.84118 -60.69681 278 ft 12 kts 252°
2026-04-25 18:23 2.84080 -60.69759 280 ft 13 kts 242°
2026-04-25 18:23 2.84035 -60.69842 278 ft 13 kts 242°
2026-04-25 18:23 2.83995 -60.69916 283 ft 12 kts 242°
2026-04-25 18:24 2.83964 -60.69976 282 ft 8 kts 244°
2026-04-25 18:24 2.83974 -60.70018 282 ft 6 kts 328°
2026-04-25 18:24 2.83990 -60.70027 279 ft 0 kts 333°
2026-04-25 18:25 2.83991 -60.70027 279 ft 1 kts 333°
2026-04-25 18:25 2.84014 -60.70039 279 ft 8 kts 333°
2026-04-25 18:26 2.84057 -60.70060 279 ft 6 kts 338°
2026-04-25 18:26 2.84098 -60.70044 279 ft 7 kts 57°
2026-04-25 18:26 2.84105 -60.70032 279 ft 0 kts 63°
2026-04-25 18:27 2.84108 -60.70026 279 ft 6 kts 63°
2026-04-25 18:28 2.84240 -60.69769 278 ft 79 kts 63°
2026-04-25 18:28 2.84598 -60.69074 280 ft 143 kts 63°
2026-04-25 18:28 2.85122 -60.68081 628 ft 169 kts 62°
2026-04-25 18:29 2.86243 -60.65976 2186 ft 171 kts 62°
2026-04-25 18:29 2.86831 -60.64871 2642 ft 192 kts 63°
2026-04-25 18:30 2.90141 -60.61988 3309 ft 262 kts 356°
2026-04-25 18:30 2.91984 -60.62255 3896 ft 271 kts 351°
2026-04-25 18:30 2.93831 -60.62589 4670 ft 274 kts 350°
2026-04-25 18:30 2.95717 -60.62935 5434 ft 277 kts 351°
2026-04-25 18:31 2.97626 -60.63278 6195 ft 280 kts 351°
2026-04-25 18:31 2.99559 -60.63617 6896 ft 283 kts 351°
2026-04-25 18:31 3.01518 -60.63954 7618 ft 286 kts 351°
2026-04-25 18:31 3.03490 -60.64286 8339 ft 289 kts 351°
2026-04-25 18:32 3.05462 -60.64615 9038 ft 292 kts 351°
2026-04-25 18:32 3.07483 -60.64949 9758 ft 295 kts 351°
2026-04-25 18:32 3.09536 -60.65287 10262 ft 306 kts 351°
2026-04-25 18:32 3.11714 -60.65643 10410 ft 328 kts 351°
2026-04-25 18:33 3.14029 -60.66021 10643 ft 344 kts 351°
2026-04-25 18:33 3.16425 -60.66412 11146 ft 351 kts 351°
2026-04-25 18:33 3.18843 -60.66805 11769 ft 353 kts 351°
2026-04-25 18:33 3.21278 -60.67201 12414 ft 356 kts 351°
2026-04-25 18:34 3.23708 -60.67596 13036 ft 359 kts 351°
2026-04-25 18:34 3.26191 -60.67999 13659 ft 363 kts 351°
2026-04-25 18:34 3.28703 -60.68407 14219 ft 366 kts 351°
2026-04-25 18:34 3.31228 -60.68817 14805 ft 369 kts 351°
2026-04-25 18:35 3.33775 -60.69231 15390 ft 372 kts 351°
2026-04-25 18:35 3.36337 -60.69647 15941 ft 376 kts 351°
2026-04-25 18:35 3.38933 -60.70069 16509 ft 379 kts 351°
2026-04-25 18:35 3.41547 -60.70493 17064 ft 382 kts 351°
2026-04-25 18:36 3.44187 -60.70922 17610 ft 386 kts 351°
2026-04-25 18:36 3.46857 -60.71356 18148 ft 389 kts 351°
2026-04-25 18:36 3.49504 -60.71786 18584 ft 392 kts 351°
2026-04-25 18:36 3.52216 -60.72227 19037 ft 395 kts 352°
2026-04-25 18:37 3.54947 -60.72672 19485 ft 398 kts 351°
2026-04-25 18:37 3.57690 -60.73124 19927 ft 401 kts 351°
2026-04-25 18:37 3.60455 -60.73579 20357 ft 404 kts 351°
2026-04-25 18:37 3.63206 -60.74030 20776 ft 407 kts 351°
2026-04-25 18:38 3.66013 -60.74487 21199 ft 410 kts 351°
2026-04-25 18:38 3.68841 -60.74946 21599 ft 413 kts 352°
2026-04-25 18:38 3.71686 -60.75406 22003 ft 416 kts 352°
2026-04-25 18:38 3.74557 -60.75870 22432 ft 418 kts 352°
2026-04-25 18:39 3.77441 -60.76337 22811 ft 421 kts 352°
2026-04-25 18:39 3.80353 -60.76808 23180 ft 424 kts 352°
2026-04-25 18:39 3.83235 -60.77274 23538 ft 427 kts 352°
2026-04-25 18:39 3.86179 -60.77750 23836 ft 429 kts 352°
2026-04-25 18:40 3.89143 -60.78173 24179 ft 430 kts 354°
2026-04-25 18:40 3.92134 -60.78477 24523 ft 431 kts 356°
2026-04-25 18:40 3.95105 -60.78727 24836 ft 433 kts 356°
2026-04-25 18:40 3.98121 -60.78968 25150 ft 435 kts 356°
2026-04-25 18:41 4.01154 -60.79216 25446 ft 437 kts 356°
2026-04-25 18:41 4.04195 -60.79474 25737 ft 440 kts 356°
2026-04-25 18:41 4.07251 -60.79743 26045 ft 442 kts 356°
2026-04-25 18:41 4.10327 -60.80019 26356 ft 444 kts 356°
2026-04-25 18:42 4.13411 -60.80300 26660 ft 445 kts 356°
2026-04-25 18:42 4.14412 -60.80392 26756 ft 446 kts 356°
2026-04-25 18:42 4.19611 -60.80868 27230 ft 449 kts 356°
2026-04-25 18:42 4.22728 -60.81154 27514 ft 451 kts 356°
2026-04-25 18:43 4.25859 -60.81441 27791 ft 453 kts 356°
2026-04-25 18:43 4.28964 -60.81725 28080 ft 454 kts 356°
2026-04-25 18:43 4.32117 -60.82014 28359 ft 456 kts 356°
2026-04-25 18:43 4.35290 -60.82304 28613 ft 459 kts 356°
2026-04-25 18:44 4.38484 -60.82596 28893 ft 460 kts 356°
2026-04-25 18:44 4.40594 -60.82789 29139 ft 460 kts 356°
2026-04-25 18:44 4.43772 -60.83080 29549 ft 458 kts 356°
2026-04-25 18:44 4.48018 -60.83469 30096 ft 455 kts 356°
2026-04-25 18:45 4.51141 -60.83755 30383 ft 456 kts 356°
2026-04-25 18:45 4.54304 -60.84044 30690 ft 456 kts 356°
2026-04-25 18:45 4.57461 -60.84333 30982 ft 456 kts 356°
2026-04-25 18:45 4.60628 -60.84623 31308 ft 455 kts 356°
2026-04-25 18:46 4.63780 -60.84912 31638 ft 455 kts 356°
2026-04-25 18:46 4.66931 -60.85200 31941 ft 455 kts 356°
2026-04-25 18:46 4.70096 -60.85490 32173 ft 457 kts 356°
2026-04-25 18:46 4.72190 -60.85683 32340 ft 458 kts 356°
2026-04-25 18:47 4.76398 -60.86075 32784 ft 456 kts 356°
2026-04-25 18:47 4.79580 -60.86373 32941 ft 459 kts 356°
2026-04-25 18:47 4.84928 -60.86873 32947 ft 467 kts 356°
2026-04-25 18:48 4.92527 -60.87583 32947 ft 474 kts 356°
2026-04-25 18:48 4.98025 -60.88098 32941 ft 474 kts 356°
2026-04-25 18:49 5.04598 -60.88713 32947 ft 474 kts 355°
2026-04-25 18:49 5.11150 -60.89326 32940 ft 474 kts 355°
2026-04-25 18:50 5.17714 -60.89940 32938 ft 473 kts 355°
2026-04-25 18:50 5.24267 -60.90553 32939 ft 472 kts 355°
2026-04-25 18:51 5.29698 -60.91061 32957 ft 471 kts 355°
2026-04-25 18:51 5.37329 -60.91775 32919 ft 475 kts 355°
2026-04-25 18:52 5.43886 -60.92549 32927 ft 472 kts 351°
2026-04-25 18:52 5.50326 -60.93786 32928 ft 470 kts 349°
2026-04-25 18:53 5.56733 -60.95093 32928 ft 468 kts 349°
2026-04-25 18:53 5.63081 -60.96346 32925 ft 466 kts 350°
2026-04-25 18:54 5.72648 -60.98179 32928 ft 467 kts 350°
2026-04-25 18:55 5.79053 -60.99400 32929 ft 468 kts 350°
2026-04-25 18:55 5.85418 -61.00613 32928 ft 470 kts 350°
2026-04-25 18:56 5.91869 -61.01845 32929 ft 472 kts 350°
2026-04-25 18:56 5.98373 -61.03088 32937 ft 479 kts 350°
2026-04-25 18:57 6.04943 -61.04344 32918 ft 481 kts 350°
2026-04-25 18:57 6.11525 -61.05602 32917 ft 481 kts 350°
2026-04-25 18:58 6.18071 -61.06854 32915 ft 481 kts 350°
2026-04-25 18:58 6.27940 -61.08742 32892 ft 479 kts 350°
2026-04-25 18:59 6.40984 -61.11238 32878 ft 476 kts 350°
2026-04-25 19:00 6.50734 -61.13105 32882 ft 475 kts 350°
2026-04-25 19:01 6.60475 -61.14970 32884 ft 474 kts 350°
2026-04-25 19:01 6.66953 -61.15937 32870 ft 473 kts 356°
2026-04-25 19:02 6.76855 -61.16452 32871 ft 474 kts 358°
2026-04-25 19:03 6.85625 -61.16902 32869 ft 475 kts 357°
2026-04-25 19:03 6.93313 -61.17361 32861 ft 476 kts 357°
2026-04-25 19:04 7.03249 -61.17975 32858 ft 477 kts 357°
2026-04-25 19:05 7.16518 -61.18790 32861 ft 478 kts 357°
2026-04-25 19:06 7.23177 -61.19199 32859 ft 479 kts 357°
2026-04-25 19:06 7.33129 -61.19809 32859 ft 479 kts 357°
2026-04-25 19:07 7.43131 -61.20423 32862 ft 480 kts 357°
2026-04-25 19:08 7.53141 -61.21037 32860 ft 480 kts 357°
2026-04-25 19:09 7.65331 -61.21786 32867 ft 480 kts 357°
2026-04-25 19:10 7.76481 -61.22472 32873 ft 480 kts 357°
2026-04-25 19:10 7.83122 -61.22880 32872 ft 481 kts 357°
2026-04-25 19:11 7.89803 -61.23291 32869 ft 481 kts 357°
2026-04-25 19:11 7.96492 -61.23702 32870 ft 481 kts 357°
2026-04-25 19:12 8.03138 -61.24111 32861 ft 481 kts 357°
2026-04-25 19:12 8.09827 -61.24523 32870 ft 481 kts 357°
2026-04-25 19:13 8.16506 -61.24935 32868 ft 481 kts 357°
2026-04-25 19:13 8.23205 -61.25347 32865 ft 481 kts 357°
2026-04-25 19:14 8.29897 -61.25760 32872 ft 482 kts 357°
2026-04-25 19:14 8.36547 -61.26170 32866 ft 482 kts 356°
2026-04-25 19:15 8.43244 -61.26583 32860 ft 481 kts 356°
2026-04-25 19:15 8.49902 -61.26994 32863 ft 480 kts 356°
2026-04-25 19:16 8.56579 -61.27406 32865 ft 480 kts 356°
2026-04-25 19:16 8.63247 -61.27818 32868 ft 479 kts 356°
2026-04-25 19:17 8.69907 -61.28229 32873 ft 479 kts 356°
2026-04-25 19:17 8.76516 -61.28637 32874 ft 479 kts 356°
2026-04-25 19:18 8.83166 -61.29048 32875 ft 479 kts 356°
2026-04-25 19:18 8.89817 -61.29460 32876 ft 479 kts 356°
2026-04-25 19:19 8.96471 -61.29871 32882 ft 479 kts 356°
2026-04-25 19:19 9.03129 -61.30283 32884 ft 479 kts 356°
2026-04-25 19:20 9.09765 -61.30694 32885 ft 480 kts 356°
2026-04-25 19:20 9.16435 -61.31107 32880 ft 480 kts 356°
2026-04-25 19:21 9.23124 -61.31521 32893 ft 481 kts 356°
2026-04-25 19:21 9.33115 -61.32140 32892 ft 481 kts 356°
2026-04-25 19:22 9.39811 -61.32556 32895 ft 481 kts 356°
2026-04-25 19:23 9.49841 -61.33178 32895 ft 481 kts 355°
2026-04-25 19:23 9.59858 -61.33800 32896 ft 481 kts 356°
2026-04-25 19:24 9.66551 -61.34215 32896 ft 481 kts 356°
2026-04-25 19:25 9.79925 -61.35046 32900 ft 482 kts 356°
2026-04-25 19:25 9.86631 -61.35463 32906 ft 482 kts 356°
2026-04-25 19:26 9.93292 -61.35878 32905 ft 482 kts 356°
2026-04-25 19:26 10.00003 -61.36295 32899 ft 482 kts 356°
2026-04-25 19:27 10.04455 -61.36572 32902 ft 482 kts 356°
2026-04-25 19:27 10.13402 -61.37130 32548 ft 487 kts 356°
2026-04-25 19:28 10.16785 -61.37341 32110 ft 483 kts 356°
2026-04-25 19:28 10.20125 -61.37548 31592 ft 479 kts 356°
2026-04-25 19:28 10.23444 -61.37755 31117 ft 475 kts 356°
2026-04-25 19:28 10.26729 -61.37960 30607 ft 472 kts 356°
2026-04-25 19:29 10.30002 -61.38164 30122 ft 469 kts 356°
2026-04-25 19:29 10.33254 -61.38367 29574 ft 466 kts 356°
2026-04-25 19:29 10.36441 -61.38566 29053 ft 462 kts 356°
2026-04-25 19:29 10.39636 -61.38765 28534 ft 457 kts 356°
2026-04-25 19:30 10.42815 -61.38964 28040 ft 453 kts 356°
2026-04-25 19:30 10.45951 -61.39172 27541 ft 449 kts 354°
2026-04-25 19:30 10.48983 -61.39663 27055 ft 445 kts 346°
2026-04-25 19:30 10.51981 -61.40413 26585 ft 440 kts 345°
2026-04-25 19:31 10.54935 -61.41202 26111 ft 437 kts 345°
2026-04-25 19:31 10.57863 -61.41994 25616 ft 434 kts 345°
2026-04-25 19:31 10.60779 -61.42773 25139 ft 431 kts 345°
2026-04-25 19:31 10.63686 -61.43537 24656 ft 429 kts 346°
2026-04-25 19:32 10.66540 -61.44277 24184 ft 427 kts 346°
2026-04-25 19:32 10.69414 -61.45015 23708 ft 424 kts 346°
2026-04-25 19:32 10.72279 -61.45747 23183 ft 422 kts 346°
2026-04-25 19:32 10.73239 -61.45993 23003 ft 421 kts 346°
2026-04-25 19:33 10.77933 -61.47189 22188 ft 415 kts 346°
2026-04-25 19:33 10.80718 -61.47900 21730 ft 411 kts 346°
2026-04-25 19:33 10.83481 -61.48604 21256 ft 407 kts 346°
2026-04-25 19:33 10.86187 -61.49295 20813 ft 404 kts 346°
2026-04-25 19:34 10.88910 -61.49991 20365 ft 401 kts 346°
2026-04-25 19:34 10.91609 -61.50680 19914 ft 398 kts 346°
2026-04-25 19:34 10.94284 -61.51364 19465 ft 396 kts 346°
2026-04-25 19:34 10.96937 -61.52041 19016 ft 396 kts 346°
2026-04-25 19:35 10.99606 -61.52724 18561 ft 395 kts 346°
2026-04-25 19:35 11.02287 -61.53409 18099 ft 395 kts 346°
2026-04-25 19:35 11.04950 -61.54090 17593 ft 394 kts 346°
2026-04-25 19:35 11.07607 -61.54769 17145 ft 393 kts 346°
2026-04-25 19:36 11.10260 -61.55448 16692 ft 391 kts 346°
2026-04-25 19:36 11.12891 -61.56121 16248 ft 389 kts 346°
2026-04-25 19:36 11.15492 -61.56787 15814 ft 387 kts 346°
2026-04-25 19:36 11.18102 -61.57455 15375 ft 386 kts 346°
2026-04-25 19:37 11.20700 -61.58120 14939 ft 384 kts 346°
2026-04-25 19:37 11.22420 -61.58561 14639 ft 384 kts 346°
2026-04-25 19:37 11.25012 -61.59225 14200 ft 384 kts 346°
2026-04-25 19:37 11.27591 -61.59885 13758 ft 381 kts 346°
2026-04-25 19:38 11.30982 -61.60754 13130 ft 376 kts 346°
2026-04-25 19:38 11.32693 -61.61193 12832 ft 374 kts 346°
2026-04-25 19:38 11.35200 -61.61835 12395 ft 370 kts 346°
2026-04-25 19:38 11.37684 -61.62472 11968 ft 366 kts 346°
2026-04-25 19:39 11.40124 -61.63095 11482 ft 365 kts 346°
2026-04-25 19:39 11.42584 -61.63723 11063 ft 362 kts 346°
2026-04-25 19:39 11.45017 -61.64344 10658 ft 359 kts 346°
2026-04-25 19:39 11.47410 -61.64955 10499 ft 348 kts 346°
2026-04-25 19:40 11.49747 -61.65551 10337 ft 345 kts 346°
2026-04-25 19:40 11.52031 -61.66375 10177 ft 354 kts 328°
2026-04-25 19:40 11.54011 -61.67864 10066 ft 356 kts 321°
2026-04-25 19:40 11.55948 -61.69439 9853 ft 355 kts 321°
2026-04-25 19:41 11.57872 -61.71008 9461 ft 349 kts 321°
2026-04-25 19:41 11.59714 -61.72503 9110 ft 335 kts 321°
2026-04-25 19:41 11.61509 -61.73951 8779 ft 323 kts 321°
2026-04-25 19:41 11.62685 -61.74896 8573 ft 315 kts 321°
2026-04-25 19:42 11.64914 -61.76682 8183 ft 301 kts 321°
2026-04-25 19:42 11.66538 -61.77981 7890 ft 291 kts 321°
2026-04-25 19:42 11.68106 -61.79234 7631 ft 282 kts 321°
2026-04-25 19:42 11.69628 -61.80450 7367 ft 274 kts 321°
2026-04-25 19:43 11.71118 -61.81640 7118 ft 270 kts 321°
2026-04-25 19:43 11.72596 -61.82821 6869 ft 269 kts 321°
2026-04-25 19:43 11.74069 -61.83998 6608 ft 269 kts 321°
2026-04-25 19:43 11.75539 -61.85173 6354 ft 268 kts 321°
2026-04-25 19:44 11.77010 -61.86347 6076 ft 268 kts 321°
2026-04-25 19:44 11.78477 -61.87519 5803 ft 267 kts 322°
2026-04-25 19:44 11.79919 -61.88672 5542 ft 267 kts 322°
2026-04-25 19:44 11.81381 -61.89841 5273 ft 266 kts 322°
2026-04-25 19:45 11.82840 -61.91007 5009 ft 266 kts 322°
2026-04-25 19:45 11.84303 -61.92177 4786 ft 267 kts 322°
2026-04-25 19:45 11.85779 -61.93356 4451 ft 271 kts 322°
2026-04-25 19:45 11.87252 -61.94535 4267 ft 267 kts 322°
2026-04-25 19:46 11.88701 -61.95693 4058 ft 260 kts 322°
2026-04-25 19:46 11.90125 -61.96744 3902 ft 244 kts 335°
2026-04-25 19:46 11.91683 -61.97110 3815 ft 225 kts 359°
2026-04-25 19:46 11.93244 -61.97130 3753 ft 225 kts
2026-04-25 19:47 11.94812 -61.97109 3639 ft 224 kts
2026-04-25 19:47 11.96359 -61.97090 3524 ft 220 kts
2026-04-25 19:47 11.97899 -61.97072 3329 ft 222 kts
2026-04-25 19:47 11.99350 -61.96636 3104 ft 217 kts 39°
2026-04-25 19:48 12.00258 -61.95466 2914 ft 210 kts 72°
2026-04-25 19:48 12.00516 -61.94043 2701 ft 200 kts 91°
2026-04-25 19:48 12.00499 -61.92673 2485 ft 190 kts 94°
2026-04-25 19:48 12.00463 -61.91352 2248 ft 182 kts 93°
2026-04-25 19:49 12.00452 -61.90090 2012 ft 173 kts 92°
2026-04-25 19:49 12.00449 -61.89272 1867 ft 167 kts 92°
2026-04-25 19:49 12.00445 -61.87757 1599 ft 157 kts 92°
2026-04-25 19:49 12.00440 -61.86659 1416 ft 149 kts 92°
2026-04-25 19:50 12.00433 -61.84635 1035 ft 139 kts 91°
2026-04-25 19:50 12.00430 -61.83647 827 ft 138 kts 92°
2026-04-25 19:50 12.00425 -61.82681 627 ft 135 kts 92°
2026-04-25 19:51 12.00414 -61.81724 418 ft 133 kts 92°
2026-04-25 19:51 12.00426 -61.80790 242 ft 132 kts 93°
2026-04-25 19:51 12.00415 -61.79873 60 ft 129 kts 94°
2026-04-25 19:51 12.00409 -61.79015 38 ft 103 kts 90°
2026-04-25 19:52 12.00406 -61.78462 30 ft 43 kts 90°
2026-04-25 19:52 12.00405 -61.78270 25 ft 13 kts 93°
2026-04-25 19:52 12.00389 -61.78192 25 ft 6 kts 83°
2026-04-25 19:52 12.00412 -61.78197 25 ft 6 kts 280°
2026-04-25 19:53 12.00406 -61.78251 25 ft 10 kts 264°
2026-04-25 19:53 12.00408 -61.78334 30 ft 13 kts 272°
2026-04-25 19:53 12.00408 -61.78428 29 ft 13 kts 270°
2026-04-25 19:53 12.00407 -61.78528 32 ft 14 kts 269°
2026-04-25 19:54 12.00423 -61.78591 33 ft 8 kts 330°
2026-04-25 19:54 12.00483 -61.78591 27 ft 8 kts 13°
2026-04-25 19:54 12.00530 -61.78594 30 ft 7 kts 355°
2026-04-25 19:54 12.00560 -61.78593 34 ft 6 kts 10°
2026-04-25 19:55 12.00608 -61.78578 34 ft 7 kts
2026-04-25 19:55 12.00629 -61.78576 34 ft 4 kts
2026-04-25 19:55 12.00647 -61.78578 34 ft 1 kts 342°
2026-04-25 19:55 12.00658 -61.78581 34 ft 0 kts 359°